Location: ??????????
(48.4699°N, 37.9573°E)
Time: 13:30:05
(UTC+00:00)

Cosmos 1603 - Pass Details

Date: 20 January 2021
Orbit: 829 x 861 km, 71.0° (Epoch: 26 February)

Event Time Altitude Azimuth Distance (km) Brightness Sun altitude
Rises 15:00:59 0° 329° (NNW) 3,421 7.0 -8.7°
Reaches altitude 10° 15:03:27 10° 326° (NNW) 2,486 6.3 -9.1°
Maximum altitude 15:09:04 61° 248° (WSW) 968 4.4 -10.0°
Drops below altitude 10° 15:14:41 10° 169° (S) 2,487 6.2 -10.9°
Sets 15:17:09 0° 166° (SSE) 3,421 6.9 -11.3°
